Simultaneous Nadir Overpasses (SNOs) Predictions

Prediction of SNOs between GOES-17 and METOP-C Satellite Orbit:

Table of predicted SNOs for the next 14.0 days since TLE Epoch: 4/8/2023
Index Date Time (GOES-17) GOES-17 Lat,Lon METOP-C Lat,Lon Distance(km) Time Diff (sec)
1 04/08/2023 16:26:32 -0.00,-104.76 -0.24,-103.71 120.16 80
2 04/10/2023 04:45:31 -0.00,-104.72 -0.82,-108.30 408.37 80
3 04/11/2023 04:22:12 -0.01,-104.71 0.32,-103.31 159.91 80
4 04/12/2023 16:41:06 0.01,-104.74 0.71,-107.88 357.50 80
5 04/13/2023 16:23:06 0.01,-104.74 -0.38,-102.88 210.78 80
6 04/15/2023 04:42:07 -0.01,-104.69 -0.62,-107.48 318.02 80
7 04/16/2023 04:18:47 -0.01,-104.69 0.47,-102.49 250.35 80
8 04/17/2023 16:37:40 0.01,-104.72 0.54,-107.06 266.60 80
9 04/18/2023 16:19:41 0.01,-104.72 -0.56,-102.06 302.25 80
10 04/20/2023 04:38:41 -0.01,-104.68 -0.44,-106.66 225.60 80
11 04/21/2023 04:15:22 -0.02,-104.68 0.66,-101.67 343.13 80
